Location: Beadle
(51.4667°N, 109.0000°W)
Time: 10:17:22
(UTC+00:00)

deb Explorer IX - Pass Details

Date: 01 June 2022
Orbit: 535 x 1068 km, 38.8° (Epoch: 04 July)

Event Time Altitude Azimuth Distance (km) Brightness Sun altitude
Rises 17:36:47 0° 240° (WSW) 3,850 ? 55.1°
Reaches altitude 10° 17:39:58 10° 229° (SW) 2,885 ? 55.5°
Maximum altitude 17:45:43 27° 175° (S) 1,857 ? 56.0°
Drops below altitude 10° 17:51:08 10° 120° (ESE) 2,716 ? 56.6°
Sets 17:54:03 0° 109° (ESE) 3,585 ? 56.8°
